User: anonymous   Login
Location: Pasadena-CA
(34.1440°N, 118.1100°W)
Time: 17:58:01
(UTC-07:00)
Language:

BlueWalker 3 - Orbit

View from above orbital plane
View from above orbital plane
View from above satellite
View from above satellite

Ground track
Ground track

The orbit data is extracted from the following two-line orbital elements,

1 53807U 22111AL  25170.30666470  .00004522  00000-0  15040-3 0  9993
2 53807  53.2320 291.0723 0008401 130.5190 229.6546 15.33184509154447
Epoch (UTC): 19 June 2025 07:21:35
Eccentricity: 0.0008401
inclination: 53.2320°
perigee height: 460 km
apogee height: 472 km
right ascension of ascending node: 291.0723°
argument of perigee: 130.5190°
revolutions per day: 15.33184509
mean anomaly at epoch: 229.6546°
orbit number at epoch: 15444

The dashed part of the orbit path shows where the satellite is in the earth's shadow,  

DLR